Погода в Ивановке

Украина / Херсонская область     46°42′35″N   34°32′59″E
темп.,
°C
ветер,
м/с
пор.,
м/с
влажн.,
%
обл.,
%
осадки,
мм/ч
давл.,
гПа
погр.,
м
20 апреля, вт
вт2000:00+10юв2273100 0.0 101162
03:00+10всв3472100 0.0 1009135
06:00+8всв3792100 1.9 1007347
09:00+8с3596100 7.0 1005337
12:00+10св5691100 5.3 1004476
15:00+10в3491100 5.4 1003389
18:00+9ссз4792100 0.3 1004406
21:00+9з5992100 0.7 1007391
21 апреля, ср
ср2100:00+8зюз51090100 0.0 1010213
03:00+7зюз4986100 0.0 1012198
06:00+6юз3789100 0.0 1013146
09:00+11зюз466993 0.0 1015452
12:00+15зюз5751100 0.1 10161676
15:00+16зюз6751100 1.1 10161766
18:00+14зюз566144 0.6 10171175
21:00+9юз48855 0.8 1019151
22 апреля, чт
чт2200:00+8юз37915 0.0 1020149
03:00+7юз34945 0.0 102072
06:00+6ююз34944 0.0 102179
09:00+12ююз35742 0.0 1022576
12:00+16ююз445224 0.0 10211633
15:00+16юз555199 0.5 10211410
18:00+15юз576268 2.2 1021680
21:00+10ююз47830 2.6 1022114
23 апреля, пт
пт2300:00+9юз36880 0.0 1022101
03:00+7ююз35890 0.0 102183
06:00+7ююз35880 0.0 102182
09:00+13ю576424 0.0 1021495
12:00+16ю6848100 0.0 10201345
15:00+18ююз6743100 0.0 10191920
18:00+16юз575468 0.0 10181192
21:00+11юз487596 0.0 1018196
24 апреля, сб
сб2400:00+9юз498898 0.0 1018256
03:00+8зюз379685 0.0 1017186
06:00+7сз36957 0.0 1018202
09:00+10ссз457022 0.0 1019820
12:00+13ссз44435 0.0 10201603
15:00+14зсз554096 0.0 10192291
18:00+12сз455796 0.0 1019694
21:00+9зсз34685 0.0 102049